Location: Friaudour
(46.0460°N, 1.2873°E)
Time: 20:45:18
(UTC+00:00)

Meteor 1-5 Rocket - Pass Details

Date: 14 July 2020
Orbit: 789 x 915 km, 81.2° (Epoch: 14 August)

Event Time Altitude Azimuth Distance (km) Brightness Sun altitude
Exits shadow 01:55:51 27° 188° (S) 1,602 5.1 -17.5°
Maximum altitude 01:59:07 88° 100° (E) 883 4.2 -17.2°
Drops below altitude 10° 02:05:01 10° 11° (NNE) 2,576 7.9 -16.7°
Sets 02:07:31 0° 12° (NNE) 3,534 8.8 -16.5°
